Columbus, GA

4:31 PM EDT on April 28, 2017 (GMT -0400)
Columbus Metro

Weather History for KCSG - February, 2013

Change the Weather History Date:

Friday, February 22, 2013

  Actual Average Record
Temperature  
Mean Temperature 55 °F 53 °F  
Max Temperature 62 °F 64 °F 80 °F (1917)
Min Temperature 48 °F 42 °F 15 °F (1963)
Degree Days  
Heating Degree Days 10 13  
Month to date heating degree days 307 324  
Since 1 July heating degree days 1282 1707  
Cooling Degree Days 0 0  
Month to date cooling degree days 0 0  
Year to date cooling degree days 25 1  
Growing Degree Days 5 (Base 50)    
Moisture  
Dew Point 46 °F    
Average Humidity 65    
Maximum Humidity 93    
Minimum Humidity 36    
Precipitation  
Precipitation 1.76 in 0.17 in 1.94 in (1932)
Month to date precipitation 9.65 3.46  
Year to date precipitation 12.87 7.31  
Snow  
Snow 0.00 in 0.00 in 0.00 in (2002)
Month to date snowfall 0.0 0.0  
Since 1 July snowfall 0.0 0.3  
Snow Depth -    
Sea Level Pressure  
Sea Level Pressure 30.02 in    
Wind  
Wind Speed 9 mph (East)    
Max Wind Speed 24 mph    
Max Gust Speed 35 mph    
Visibility 6 miles    
Events Rain , Thunderstorm    
T = Trace of Precipitation, MM = Missing Value Source: NWS Daily Summary

Daily Weather History Graph

Daily Weather History Graph

Search for Another Location

Airport or City:

Trip Planner

Search our weather history database for the weather conditions in past years. The results will help you decide how hot, cold, wet, or windy it might be!

Date:

Astronomy

Feb. 22, 2013 Rise Set
Actual Time 7:15 AM EST 6:31 PM EST
Civil Twilight 6:50 AM EST 6:56 PM EST
Nautical Twilight 6:21 AM EST 7:25 PM EST
Astronomical Twilight 5:53 AM EST 7:53 PM EST
Moon 3:48 PM EST (2/22) 4:52 AM EST (2/22)
Length of Visible Light 12h 06m
Length of Day
11h 16m
Waxing Gibbous, 90% of the Moon is Illuminated
Feb 22
Waxing Gibbous
Feb 25
Full
Mar 4
Last Quarter
Mar 11
New
Mar 19
First Quarter

Hourly Weather History & Observations

Time (EST) Temp. Dew Point Humidity Pressure Visibility Wind Dir Wind Speed Gust Speed Precip Events Conditions
12:51 AM 61.0 °F 39.0 °F 44% 29.98 in 10.0 mi SE 3.5 mph - N/A   Mostly Cloudy
1:51 AM 62.1 °F 39.9 °F 44% 29.99 in 10.0 mi NNE 6.9 mph - 0.00 in   Overcast
2:35 AM 57.2 °F 42.8 °F 59% 29.99 in 10.0 mi East 8.1 mph - 0.01 in Rain , Thunderstorm Light Thunderstorms and Rain
2:44 AM 57.2 °F 44.6 °F 63% 29.99 in 10.0 mi East 5.8 mph - 0.01 in Rain , Thunderstorm Light Thunderstorms and Rain
2:51 AM 57.0 °F 44.1 °F 62% 29.99 in 10.0 mi East 5.8 mph - 0.01 in Rain , Thunderstorm Light Rain
3:08 AM 57.2 °F 42.8 °F 59% 30.01 in 10.0 mi NNE 5.8 mph - 0.00 in   Overcast
3:51 AM 54.0 °F 45.0 °F 72% 29.97 in 6.0 mi East 10.4 mph - 0.01 in Rain Light Rain
4:51 AM 52.0 °F 45.0 °F 77% 29.98 in 10.0 mi ENE 10.4 mph - 0.06 in   Overcast
5:09 AM 51.8 °F 44.6 °F 76% 29.99 in 9.0 mi ENE 12.7 mph - 0.00 in Rain , Thunderstorm Light Rain
5:35 AM 50.0 °F 46.4 °F 87% 30.01 in 2.5 mi ENE 10.4 mph - 0.16 in Rain , Thunderstorm Thunderstorms and Rain
5:40 AM 50.0 °F 46.4 °F 87% 30.00 in 4.0 mi ENE 10.4 mph - 0.17 in Rain Rain
5:51 AM 50.0 °F 46.9 °F 89% 30.01 in 4.0 mi ENE 10.4 mph 18.4 mph 0.22 in Rain Heavy Rain
6:02 AM 50.0 °F 46.4 °F 87% 30.03 in 2.5 mi ENE 11.5 mph 20.7 mph 0.08 in Rain Heavy Rain
6:10 AM 50.0 °F 46.4 °F 87% 30.03 in 6.0 mi East 11.5 mph - 0.10 in Rain Light Rain
6:26 AM 50.0 °F 46.4 °F 87% 30.03 in 5.0 mi ESE 12.7 mph - 0.12 in Rain Rain
6:51 AM 50.0 °F 46.9 °F 89% 30.04 in 8.0 mi East 13.8 mph - 0.15 in Rain Light Rain
7:19 AM 50.0 °F 46.4 °F 87% 30.05 in 5.0 mi ESE 11.5 mph - 0.12 in Rain Light Rain
7:40 AM 50.0 °F 46.4 °F 87% 30.04 in 7.0 mi East 11.5 mph - 0.12 in Rain Light Rain
7:51 AM 50.0 °F 46.4 °F 87% 30.05 in 2.5 mi East 11.5 mph - N/A Rain Heavy Rain
8:14 AM 50.0 °F 46.4 °F 87% 30.04 in 7.0 mi East 13.8 mph - 0.07 in Rain Light Rain
8:51 AM 50.0 °F 48.0 °F 93% 30.06 in 10.0 mi East 12.7 mph 19.6 mph 0.07 in   Overcast
9:51 AM 51.1 °F 48.0 °F 89% 30.05 in 10.0 mi East 11.5 mph - 0.02 in   Overcast
10:51 AM 51.8 °F 48.2 °F 88% 30.08 in 10.0 mi East 11.5 mph - N/A   Overcast
11:51 AM 52.0 °F 48.0 °F 86% 30.08 in 10.0 mi ENE 8.1 mph - N/A   Overcast
12:51 PM 51.1 °F 48.9 °F 92% 30.07 in 4.0 mi East 11.5 mph - N/A   Overcast
1:15 PM 51.8 °F 48.2 °F 88% 30.06 in 5.0 mi East 13.8 mph 18.4 mph N/A   Overcast
1:43 PM 51.8 °F 48.2 °F 88% 30.06 in 2.0 mi East 11.5 mph - N/A   Overcast
1:51 PM 51.1 °F 48.0 °F 89% 30.05 in 2.5 mi East 12.7 mph - N/A   Overcast
2:01 PM 51.8 °F 48.2 °F 88% 30.05 in 1.5 mi East 9.2 mph - N/A   Overcast
2:06 PM 51.8 °F 48.2 °F 88% 30.04 in 3.0 mi East 11.5 mph - N/A   Overcast
2:51 PM 51.1 °F 48.0 °F 89% 30.03 in 9.0 mi East 8.1 mph - N/A   Overcast
3:51 PM 51.1 °F 48.0 °F 89% 30.02 in 3.0 mi East 10.4 mph - N/A   Overcast
4:19 PM 50.0 °F 48.2 °F 94% 30.02 in 1.8 mi East 10.4 mph - N/A   Overcast
4:48 PM 50.0 °F 48.2 °F 94% 30.01 in 2.0 mi East 10.4 mph - N/A   Overcast
4:51 PM 50.0 °F 48.0 °F 93% 30.01 in 2.0 mi East 11.5 mph - N/A   Overcast
5:51 PM 50.0 °F 46.9 °F 89% 30.04 in 2.0 mi NNE 4.6 mph - N/A   Overcast
6:07 PM 50.0 °F 46.4 °F 87% 30.01 in 2.0 mi East 12.7 mph - 0.16 in Rain Heavy Rain
6:42 PM 48.2 °F 46.4 °F 93% 30.01 in 2.0 mi ESE 11.5 mph - 0.23 in Rain Heavy Rain
6:51 PM 48.9 °F 46.9 °F 93% 30.03 in 4.0 mi NE 6.9 mph - 0.26 in Rain Rain
7:32 PM 48.2 °F 46.4 °F 93% 30.03 in 2.0 mi ENE 10.4 mph - 0.15 in Rain Heavy Rain
7:38 PM 48.2 °F 46.4 °F 93% 30.02 in 4.0 mi East 10.4 mph - 0.17 in Rain Rain
7:42 PM 48.2 °F 46.4 °F 93% 30.00 in 5.0 mi East 10.4 mph - 0.17 in Rain , Thunderstorm Light Thunderstorms and Rain
7:49 PM 48.2 °F 46.4 °F 93% 30.00 in 9.0 mi East 10.4 mph - 0.17 in Rain , Thunderstorm Light Thunderstorms and Rain
7:51 PM 48.9 °F 46.9 °F 93% 29.99 in 10.0 mi East 11.5 mph - 0.17 in Rain , Thunderstorm Light Thunderstorms and Rain
7:58 PM 48.2 °F 46.4 °F 93% 30.02 in 10.0 mi NNE 9.2 mph - 0.00 in Thunderstorm Thunderstorm
8:09 PM 48.2 °F 46.4 °F 93% 30.04 in 2.0 mi NE 16.1 mph 34.5 mph 0.01 in Rain , Thunderstorm Light Thunderstorms and Rain
8:13 PM 48.2 °F 46.4 °F 93% 30.07 in 1.2 mi North 11.5 mph 34.5 mph 0.30 in Rain , Thunderstorm Heavy Thunderstorms and Rain
8:21 PM 48.2 °F 46.4 °F 93% 30.06 in 2.0 mi NE 8.1 mph 17.3 mph 0.42 in Rain , Thunderstorm Light Thunderstorms and Rain
8:29 PM 48.2 °F 46.4 °F 93% 30.05 in 6.0 mi NE 9.2 mph - 0.44 in Rain , Thunderstorm Thunderstorms and Rain
8:51 PM 48.9 °F 46.9 °F 93% 30.03 in 10.0 mi East 8.1 mph - 0.52 in Rain , Thunderstorm Light Thunderstorms and Rain
9:01 PM 48.2 °F 46.4 °F 93% 30.04 in 10.0 mi SE 6.9 mph - 0.00 in   Overcast
9:18 PM 48.2 °F 46.4 °F 93% 30.02 in 8.0 mi East 10.4 mph - 0.02 in Rain Light Rain
9:42 PM 48.2 °F 46.4 °F 93% 30.01 in 10.0 mi East 10.4 mph - 0.02 in Rain Light Rain
9:51 PM 48.0 °F 46.0 °F 93% 30.02 in 10.0 mi East 8.1 mph - 0.02 in Rain Light Rain
10:51 PM 48.9 °F 46.0 °F 90% 30.02 in 10.0 mi East 6.9 mph - 0.00 in   Overcast
11:23 PM 48.2 °F 44.6 °F 87% 29.99 in 10.0 mi ESE 10.4 mph - N/A   Overcast
11:51 PM 48.0 °F 46.0 °F 93% 29.97 in 10.0 mi East 6.9 mph - 0.01 in Rain Light Rain